Regional Weather Roundup
Issued by NWS San Angelo, TX

Home | Current Version | Previous Version | Text Only | Print | Product List | Glossary On
Versions: 1 2 3 4 5 6 7 8 9 10 11 12 13 14 15 16 17 18 19 20 21 22 23 24 25 26 27 28 29 30 31 32 33 34 35 36 37 38 39 40 41 42 43 44 45 46 47 48 49 50
000
ASUS44 KSJT 181610
RWRSJT
WEST CENTRAL TEXAS REGIONAL WEATHER ROUNDUP
NATIONAL WEATHER SERVICE SAN ANGELO TX
1000 AM CST THU DEC 18 2014

NOTE: "FAIR" INDICATES FEW OR NO CLOUDS BELOW 12,000 FEET WITH NO
SIGNIFICANT WEATHER AND/OR OBSTRUCTIONS TO VISIBILITY.

TXZ049-054-064>066-071>073-076>078-098-099-113-114-127-128-139-140-
154-155-168>170-181700
...LOCATIONS ACROSS WEST CENTRAL TEXAS...

CITY           SKY/WX    TMP DP  RH WIND       PRES   REMARKS
SAN ANGELO     PTSUNNY   46  44  93 W3        30.16R
ABILENE        SUNNY     52  44  74 SW6       30.14R
DYESS AFB      SUNNY     55  39  54 VRB5      30.13R
JUNCTION       CLOUDY    54  54 100 NW5       30.16R FOG
SWEETWATER     SUNNY     51  40  65 SW8       30.17R
BROWNWOOD      PTSUNNY   54  50  87 SW8       30.15R
COLEMAN        MOSUNNY   52  49  91 SW6       30.15R
SONORA         FOG       50  50 100 VRB5      30.21R VSB 1/2
OZONA          FAIR      43  43 100 S3        30.19R
BRADY          NOT AVBL
$$

TEXAS PANHANDLE/OKLAHOMA PANHANDLE

CITY           SKY/WX    TMP DP  RH WIND       PRES   REMARKS
AMARILLO       CLOUDY    34  32  92 N12       30.12R WCI  25
BORGER         CLOUDY    34  28  79 NW9       30.14R WCI  27
CANADIAN       CLOUDY    39  38  97 CALM      30.13R FOG
DALHART        FOG       28  26  92 NW3       30.13R VSB 1
DUMAS          CLOUDY    31  28  89 N6        30.12R WCI  25
GUYMON         NOT AVBL
HEREFORD       FOG       35  35 100 N6        30.13R VSB 3/4 WCI  30
PAMPA          CLOUDY    33  33  96 NW10      30.13R FOG     WCI  25
PERRYTON       CLOUDY    35  34  97 NW8       30.12R VSB 3/4 WCI  29
$$

SOUTHERN PANHANDLE/SOUTH PLAINS/ROLLING PLAINS

CITY           SKY/WX    TMP DP  RH WIND       PRES   REMARKS
LUBBOCK        MOSUNNY   44  32  62 N7        30.11R
SNYDER         SUNNY     42  39  87 W6        30.15R WCI  39
CHILDRESS      CLOUDY    43  40  89 NE6       30.15R WCI  39
SEMINOLE       SUNNY     50  33  52 W6        30.14S
$$

PERMIAN BASIN

CITY           SKY/WX    TMP DP  RH WIND       PRES   REMARKS
MIDLAND        PTSUNNY   50  35  56 N6        30.13S
ODESSA         PTSUNNY   52  34  50 W3        30.14R
WINK           MOSUNNY   48  31  51 CALM      30.13R
$$

FAR WEST/SOUTHWEST MOUNTAINS/TRANS PECOS

CITY           SKY/WX    TMP DP  RH WIND       PRES   REMARKS
ALPINE         MOSUNNY   51  29  42 CALM      30.24R
DRYDEN           N/A     48  47  96 W5        30.15R
EL PASO        MOSUNNY   48  36  63 CALM      30.15R
FORT STOCKTON  PTSUNNY   54  32  43 SW9       30.15R
GUADALUPE PASS NOT AVBL
MARFA          PTSUNNY   43  28  56 CALM      30.20R
PECOS          MOSUNNY   55  35  47 SW12      30.14R
$$

DALLAS/FORT WORTH METROPLEX

CITY           SKY/WX    TMP DP  RH WIND       PRES   REMARKS
DFW AIRPORT    DRIZZLE   45  44  97 NE3       30.16R FOG
FTW MEACHAM    FOG       45  44  97 NE6       30.16R VSB 1
DAL-EXECUTIVE  FOG       45  43  93 NE5       30.16R VSB 1
GRAND PRAIRIE  FOG       45  45 100 CALM      30.16S VSB 1
ADDISON        CLOUDY    45  43  93 E3        30.17R FOG
MESQUITE       CLOUDY    45  43  93 CALM      30.18R FOG
LANCASTER      CLOUDY    44  43  93 CALM      30.18R FOG
$$

NORTH CENTRAL TEXAS

CITY           SKY/WX    TMP DP  RH WIND       PRES   REMARKS
SHRMAN/DENISON CLOUDY    41  41 100 CALM      30.19R FOG
GAINESVILLE    CLOUDY    42  41  98 SE6       30.19R FOG     WCI  38
BRIDGEPORT     CLOUDY    44  44 100 E3        30.19R FOG
DENTON         CLOUDY    44  44 100 CALM      30.17S FOG
WAXAHACHIE     CLOUDY    45  45 100 NE3       30.17S FOG
GRANBURY       CLOUDY    48  47  94 CALM      30.17R FOG
$$

WESTERN NORTH TEXAS

CITY           SKY/WX    TMP DP  RH WIND       PRES   REMARKS
WICHITA FALLS  CLOUDY    43  42  97 SE7       30.15R FOG     WCI  39
VERNON         CLOUDY    43  39  87 NE6       30.17R WCI  39
BRECKENRIDGE   MOSUNNY   54  47  78 W6        30.13R HAZE
COMANCHE       CLOUDY    53  53 100 SW3       30.14R
$$

CENTRAL AND SOUTH CENTRAL TEXAS

CITY           SKY/WX    TMP DP  RH WIND       PRES   REMARKS
AUSTIN/BERGSTM FOG       51  51 100 NE6       30.15R VSB 1/2
WACO           CLOUDY    48  47  96 N3        30.16R FOG
HILLSBORO      CLOUDY    47  46  95 CALM      30.16R FOG
TEMPLE         CLOUDY    50  45  81 N3        30.14R
KILLEEN-GRAY   CLOUDY    50  50 100 VRB1      30.14R FOG
FORT HOOD      CLOUDY    50  49  98 NW2       30.14R FOG
GEORGETOWN     FOG       52  48  87 CALM      30.13R VSB 1
LAGO VISTA     FOG       53  51  95 CALM      30.14S VSB 1/4
SAN MARCOS     CLOUDY    55  52  88 N8        30.14R FOG
NEW BRAUNFELS  CLOUDY    58  54  86 NE10      30.12R
RANDOLPH AFB   CLOUDY    57  56  95 N5        30.13R FOG
SAN ANTONIO    CLOUDY    60  57  89 N7        30.12R
STINSON        CLOUDY    59  56  89 NE7       30.11R
PLEASANTON     NOT AVBL
LA GRANGE      CLOUDY    55  53  94 N6        30.12R FOG
GIDDINGS       FOG       51  50  98 N3        30.17R VSB 1/4
$$

EAST TEXAS

CITY           SKY/WX    TMP DP  RH WIND       PRES   REMARKS
PARIS          CLOUDY    41  39  93 E8        30.20R WCI  36
CLARKSVILLE    NOT AVBL
TYLER          CLOUDY    47  44  90 E6        30.16R FOG
LONGVIEW       CLOUDY    47  43  86 E6        30.17R
PALESTINE      CLOUDY    48  47  96 E5        30.16S FOG
NACOGDOCHES    CLOUDY    48  45  87 E3        30.17S
$$

TEXAS HILL COUNTRY AND EDWARDS PLATEAU

CITY           SKY/WX    TMP DP  RH WIND       PRES   REMARKS
LLANO          CLOUDY    54  54 100 CALM      30.18R FOG
HORSESHOE BAY  CLOUDY   N/A N/A N/A CALM      30.15R FOG
KERRVILLE      CLOUDY    57  56  96 NW3       30.14S FOG
FREDERICKSBRG  CLOUDY    56  56  99 W3        30.14R FOG
ROCKSPRINGS    FOG       55  55 100 CALM      30.17R VSB<1/4
HONDO          CLOUDY    62  59  90 NE7       30.14R
UVALDE         NOT AVBL
DEL RIO        CLOUDY    56  51  84 W10       30.15R
$$

SOUTHEAST TEXAS

CITY           SKY/WX    TMP DP  RH WIND       PRES   REMARKS
COLLEGE STN    CLOUDY    54  50  86 VRB3      30.14R
CALDWELL       CLOUDY    50  50 100 NE3       30.17R FOG
CROCKETT       CLOUDY    55  52  88 NE5       30.18R
BRENHAM        CLOUDY    55  54  95 N5        30.14R FOG
HUNTSVILLE     CLOUDY    55  52  89 E3        30.13S
CONROE         CLOUDY    57  54  89 E5        30.14R
HOUSTON BUSH   CLOUDY    58  56  93 NE5       30.13R FOG
HOUSTON HOBBY  CLOUDY    65  64  97 N8        30.11R FOG
PERLAND        CLOUDY    67  65  93 NE5       30.12S FOG
WHARTON        CLOUDY    62  62  98 N3        30.11S
$$

THE UPPER TEXAS COAST

CITY           SKY/WX    TMP DP  RH WIND       PRES   REMARKS
ORANGE         CLOUDY    60  57  90 NE3       30.14R
PORT ARTHUR    CLOUDY    64  60  87 E6        30.12R
GALVESTON      LGT RAIN  66  65  96 N10       30.11R FOG
ANGLETON       LGT RAIN  65  65 100 CALM      30.11R
BAY CITY         N/A     67  67 100 NE3       30.11R
$$

TEXAS COASTAL BEND, RIO GRANDE PLAINS DEEP SOUTH TEXAS

CITY           SKY/WX    TMP DP  RH WIND       PRES   REMARKS
VICTORIA       FOG       61  60  97 N8        30.11R VSB 1/2
BEEVILLE       FOG       64  64 100 NE8       30.09R VSB 3/4
ROCKPORT       CLOUDY    73  67  81 S6        30.07R
PORT ARANSAS   CLOUDY    69  67  91 SE3       30.08R
PORT LAVACA    CLOUDY    64  63  97 N7        30.10R FOG
CORPUS CHRISTI CLOUDY    73  68  84 SE5       30.07R
KINGSVILLE NAS PTSUNNY   74  70  87 S12       30.07R
COTULLA        CLOUDY    62  60  93 N6        30.11R FOG
LAREDO         CLOUDY    57  57 100 NW9       30.13R FOG
BROWNSVILLE    PTSUNNY   75  70  84 SE9       30.07R
PORT ISABEL    PTSUNNY   75  69  81 SE8       30.06R HAZE
HEBBRONVILLE   CLOUDY    60  59  97 NW7       30.09R FOG
MCALLEN        CLOUDY    66  60  81 W3        30.07R
WESLACO        CLOUDY    73  67  83 S6        30.06R HAZE
FALFURRIAS     CLOUDY    71  68  89 SE3       30.06S
EDINBURG       CLOUDY    71  65  81 SW5       30.07R
$$


USA.gov is the U.S. government's official web portal to all federal, state and local government web resources and services.